Home > Weather > Gunsan > Past weeks

Flag for South Korea Weather for the Past 2 Weeks in Gunsan, South Korea

Now
50 °F

Clear.


Feels Like: 48 °F
Forecast: 52 / 67 °F
Wind: 6 mph from Northwest

Location: Kunsan Ab

Current Time: May 7, 2016 at 4:44:22 AM

Latest Report: May 7, 2016 at 3:58 AM


Visibility: 8 mi

Pressure: 29.93 "Hg

Humidity: 89%

Dew Point: 47 °F

Location of GunsanLocation

Historic Weather in Gunsan — Graph

°F

Gunsan Temperature Yesterday

Maximum temperature yesterday: 73 °F (at 10:58 AM)
Minimum temperature yesterday: 52 °F (at 11:58 PM)
Average temperature yesterday: 63 °F

High & Low Weather Summary for the Past Weeks

 TemperatureHumidityPressure
High79 °F (May 2, 11:58 AM)100% (Apr 22, 2:46 AM)30.08 "Hg (Apr 22, 2:46 AM)
Low48 °F (Apr 29, 5:04 AM)25% (May 1, 8:58 AM)29.31 "Hg (May 3, 7:02 AM)
Average59 °F80%29.86 "Hg
* Reported Apr 22 2:46 AM — May 7 2:58 AM, Gunsan, Weather by CustomWeather, © 2016

Note: Actual official high and low records may vary slightly from our data, if they occured in-between our weather recording intervals... More about our weather records

Advertising

Gunsan Weather History for the Previous 24 Hours

Scroll right to see more
 ConditionsComfort  
Time TempWeatherWind HumidityBarometerVisibility
2:58 AM
Sat, May 7
52 °FClear.7 mph90%29.91 "Hg7 mi
1:58 AM52 °FClear.7 mph92%29.90 "Hg7 mi
12:58 AM51 °FClear.5 mph94%29.89 "Hg8 mi
11:58 PM
Fri, May 6
52 °FClear.8 mph94%29.88 "Hg9 mi
10:58 PM52 °FPassing clouds.8 mph93%29.85 "Hg10 mi
10:00 PM54 °FFog.6 mph94%29.86 "Hg2 mi
9:58 PM53 °FFog.8 mph98%29.86 "Hg2 mi
9:03 PM55 °FFog.12 mph94%29.83 "Hg2 mi
8:58 PM55 °FFog.12 mph97%29.82 "Hg4 mi
7:58 PM57 °FLow clouds.13 mph94%29.78 "Hg7 mi
6:58 PM58 °FLow clouds.12 mph93%29.74 "Hg7 mi
5:58 PM57 °FLight rain. Fog.13 mph94%29.74 "Hg5 mi
4:58 PM60 °FLow clouds.17 mph93%29.72 "Hg9 mi
3:58 PM64 °FLow clouds.17 mph91%29.72 "Hg10 mi
2:58 PM67 °FScattered clouds.16 mph85%29.72 "Hg9 mi
1:58 PM71 °FPassing clouds.12 mph77%29.71 "Hg10 mi
12:58 PM71 °FBroken clouds.10 mph75%29.72 "Hg9 mi
11:58 AM73 °FScattered clouds.10 mph71%29.74 "Hg10 mi
10:58 AM73 °FPartly sunny.6 mph70%29.73 "Hg10 mi
9:58 AM72 °FOvercast.8 mph72%29.73 "Hg10 mi
8:58 AM69 °FOvercast.10 mph78%29.73 "Hg10 mi
7:58 AM68 °FOvercast.8 mph81%29.73 "Hg10 mi
6:58 AM66 °FOvercast.9 mph83%29.73 "Hg10 mi
5:58 AM67 °FMostly cloudy.13 mph80%29.73 "Hg10 mi
4:58 AM68 °FOvercast.17 mph77%29.74 "Hg10 mi
Weather by CustomWeather, © 2016

See weather overviewHow to use our weather pages